Weather reports worldwide

Advertisment
Landsort, Sweden (2567): temperature & dewpoint: 17.10.2019 21:00:00 - 23.10.2019 21:00:00 (CEST)Landsort, Sweden (2567): wind speed & gusts: 17.10.2019 21:00:00 - 23.10.2019 21:00:00 (CEST)Landsort, Sweden (2567): wind direction: 17.10.2019 21:00:00 - 23.10.2019 21:00:00 (CEST)Landsort, Sweden (2567): reduced air pressure: 17.10.2019 21:00:00 - 23.10.2019 21:00:00 (CEST)Landsort, Sweden (2567): visibility: 17.10.2019 21:00:00 - 23.10.2019 21:00:00 (CEST)Landsort, Sweden (2567): precipitation: 17.10.2019 21:00:00 - 23.10.2019 21:00:00 (CEST)
Date & Time tt [°C] td [°C] ff [km/h] ff [kn] fx [km/h] fx [kn] dd ppp [hPa] vv [km] rr [mm]
23.10.2019 21:00:00 - - - - - - - - - -
23.10.2019 20:00:00 10,5 6,9 29 15 38 21 SW 1014,7 40 0,0
23.10.2019 19:00:00 10,7 7,0 27 14 38 21 WSW 1014,4 33 0,0
23.10.2019 18:00:00 11,0 6,9 34 18 41 22 WSW 1014,5 28 0,0
23.10.2019 17:00:00 11,0 7,0 31 17 46 25 WSW 1014,3 28 0,0
23.10.2019 16:00:00 11,3 7,4 35 19 44 24 W 1014,5 26 0,0
23.10.2019 15:00:00 11,3 8,0 34 18 45 24 WSW 1014,8 25 0,0
23.10.2019 14:00:00 11,1 8,6 26 14 40 21 WSW 1014,8 22 0,0
23.10.2019 13:00:00 10,6 8,8 34 18 42 23 SW 1014,8 22 0,0
23.10.2019 12:00:00 10,9 9,1 25 13 32 18 SW 1014,7 20 0,0
23.10.2019 11:00:00 11,0 8,6 22 12 30 16 WSW 1014,5 24 0,0
23.10.2019 10:00:00 10,9 8,5 23 13 33 18 WSW 1014,8 22 0,0
23.10.2019 09:00:00 10,9 8,5 27 15 34 18 WSW 1014,4 21 0,0
23.10.2019 08:00:00 10,7 8,5 26 14 32 17 WSW 1014,0 22 0,0
23.10.2019 07:00:00 10,4 8,5 22 12 32 18 WSW 1013,7 20 0,0
23.10.2019 06:00:00 10,7 8,3 24 13 31 17 WSW 1013,6 24 0,0
23.10.2019 05:00:00 10,7 8,1 26 14 35 19 W 1013,1 24 0,0
23.10.2019 04:00:00 10,7 7,8 25 13 30 16 W 1013,1 26 0,0
23.10.2019 03:00:00 10,7 7,8 24 13 39 21 W 1012,9 24 0,0
23.10.2019 02:00:00 10,8 7,8 26 14 36 20 W 1012,8 26 0,0
23.10.2019 01:00:00 11,1 7,7 33 18 49 27 W 1012,5 28 0,0
23.10.2019 00:00:00 11,2 7,8 42 23 55 30 W 1012,1 40 0,0
22.10.2019 23:00:00 11,1 7,9 37 20 52 28 WSW 1011,4 43 0,0
22.10.2019 22:00:00 11,3 7,8 40 21 53 29 W 1011,6 46 0,0
22.10.2019 21:00:00 11,4 7,4 40 21 58 31 W 1011,5 50 0,0
22.10.2019 20:00:00 11,5 7,2 45 25 61 33 W 1011,1 47 0,0
22.10.2019 19:00:00 11,6 7,5 43 23 59 32 W 1011,4 50 0,0
22.10.2019 18:00:00 11,6 7,5 40 21 55 30 W 1011,1 50 0,0
22.10.2019 17:00:00 11,3 8,1 36 20 48 26 WSW 1011,0 50 0,0
22.10.2019 16:00:00 11,5 7,9 35 19 48 26 WSW 1010,9 50 0,0
22.10.2019 15:00:00 11,5 7,7 37 20 50 27 WSW 1011,3 40 0,0
22.10.2019 14:00:00 11,3 7,9 35 19 51 28 WSW 1012,0 50 0,0
22.10.2019 13:00:00 11,1 7,8 41 22 50 27 SW 1012,4 42 0,0
22.10.2019 12:00:00 10,7 8,3 32 17 43 23 WSW 1013,0 39 0,0
22.10.2019 11:00:00 10,1 7,6 37 20 54 29 WSW 1013,5 39 0,0
22.10.2019 10:00:00 10,0 7,3 41 22 56 30 W 1013,8 40 0,0
22.10.2019 09:00:00 10,0 8,7 31 17 42 23 WSW 1013,5 26 0,0
22.10.2019 08:00:00 10,0 8,8 34 18 40 22 W 1013,5 23 0,0
22.10.2019 07:00:00 9,9 9,1 26 14 35 19 WSW 1013,5 14 0,0
22.10.2019 06:00:00 9,9 9,2 27 15 35 19 WSW 1013,8 14 0,0
22.10.2019 05:00:00 10,0 9,2 25 13 32 17 SW 1014,5 18 0,0
22.10.2019 04:00:00 10,0 9,2 21 12 29 16 SW 1015,4 12 0,0
22.10.2019 03:00:00 9,9 9,2 21 12 31 17 SW 1016,1 21 0,0
22.10.2019 02:00:00 9,8 9,0 22 12 32 18 SW 1016,7 33 0,0
22.10.2019 01:00:00 9,8 9,0 22 12 31 17 SW 1017,6 16 0,0
22.10.2019 00:00:00 9,7 9,0 20 11 30 16 SW 1018,3 13 0,0
21.10.2019 23:00:00 9,4 8,5 18 10 27 15 SSW 1018,4 20 0,0
21.10.2019 22:00:00 9,4 8,2 17 9 25 13 SSW 1019,0 35 0,0
21.10.2019 21:00:00 9,6 8,2 17 9 31 17 SSW 1019,6 44 0,0
21.10.2019 20:00:00 9,4 8,1 20 11 29 15 SSW 1020,0 37 0,0
21.10.2019 19:00:00 9,5 8,4 11 6 19 10 SSW 1020,3 48 0,0
21.10.2019 18:00:00 9,3 8,3 5 3 17 9 SSW 1020,3 45 0,0
21.10.2019 17:00:00 9,5 8,8 14 8 22 12 SSE 1020,7 7 0,4
21.10.2019 16:00:00 9,4 8,2 16 8 19 10 SE 1020,9 43 0,0
21.10.2019 15:00:00 9,2 8,0 15 8 24 13 SE 1021,1 43 0,0
21.10.2019 14:00:00 8,9 7,5 21 11 23 13 SE 1021,3 47 0,0
21.10.2019 13:00:00 8,7 7,7 21 11 25 14 ESE 1020,9 42 0,0
21.10.2019 12:00:00 8,4 7,4 18 10 22 12 E 1020,8 50 0,0
21.10.2019 11:00:00 8,0 7,7 18 10 24 13 E 1020,5 7 0,0
21.10.2019 10:00:00 8,0 7,5 17 9 25 13 ENE 1020,3 21 0,0
21.10.2019 09:00:00 8,0 7,7 22 12 28 15 ENE 1019,2 5 0,0
21.10.2019 08:00:00 8,5 7,9 16 9 24 13 NE 1018,6 27 0,0
21.10.2019 07:00:00 9,0 8,8 10 5 13 7 NE 1017,9 49 0,0
21.10.2019 06:00:00 8,7 8,5 10 6 13 7 NE 1017,2 8 0,0
21.10.2019 05:00:00 8,6 8,4 6 4 9 5 NW 1016,8 0,6 0,0
21.10.2019 04:00:00 8,2 7,9 5 3 12 6 NNW 1015,9 0,5 0,0
21.10.2019 03:00:00 8,2 8,0 5 3 11 6 N 1015,5 0,2 0,0
21.10.2019 02:00:00 9,0 8,8 0 0 6 3 N 1014,9 22 0,0
21.10.2019 01:00:00 9,4 9,2 6 4 12 6 NW 1014,4 40 0,0
21.10.2019 00:00:00 9,7 9,6 11 6 15 8 WNW 1014,1 12 0,0
20.10.2019 23:00:00 10,1 10,0 13 7 16 9 W 1013,6 11 0,0
20.10.2019 22:00:00 10,2 10,0 13 7 20 11 W 1013,3 6 0,0
20.10.2019 21:00:00 10,4 10,3 17 9 21 11 W 1012,7 7 0,0
20.10.2019 20:00:00 10,4 10,2 15 8 20 11 WSW 1012,2 4,0 0,0
20.10.2019 19:00:00 10,3 10,2 16 8 20 11 WSW 1011,7 3,9 0,0
20.10.2019 18:00:00 9,9 9,7 15 8 22 12 WSW 1011,1 0,2 0,0
20.10.2019 17:00:00 10,5 10,3 13 7 22 12 SW 1010,6 1,2 0,0
20.10.2019 16:00:00 10,6 10,4 14 8 22 12 SW 1010,4 1,8 0,0
20.10.2019 15:00:00 10,7 10,4 13 7 20 11 SW 1010,3 2,8 0,0
20.10.2019 14:00:00 10,7 10,3 16 9 22 12 WSW 1010,0 2,7 0,0
20.10.2019 13:00:00 10,9 10,5 18 10 26 14 WSW 1009,9 3,9 0,0
20.10.2019 12:00:00 11,0 10,6 14 8 24 13 SW 1009,9 4,3 0,0
20.10.2019 11:00:00 11,1 10,6 20 11 34 19 SSW 1009,6 6 0,0
20.10.2019 10:00:00 11,0 10,4 29 16 39 21 S 1009,4 8 0,2
20.10.2019 09:00:00 10,7 10,4 24 13 40 21 SSE 1009,2 3,9 1,8
20.10.2019 08:00:00 10,2 10,1 27 14 34 19 ESE 1009,3 3,1 2,6
20.10.2019 07:00:00 10,2 9,9 22 12 26 14 ESE 1009,7 7 1,4
20.10.2019 06:00:00 10,4 10,0 17 9 22 12 SE 1010,1 12 0,2
20.10.2019 05:00:00 10,4 10,0 16 9 19 10 SE 1010,5 11 0,0
20.10.2019 04:00:00 10,3 9,9 9 5 13 7 S 1010,6 10 0,0
20.10.2019 03:00:00 10,4 9,8 11 6 20 11 SSW 1010,6 13 0,0
20.10.2019 02:00:00 10,6 9,7 15 8 21 11 SSW 1010,7 16 0,0
20.10.2019 01:00:00 10,5 9,5 14 8 29 16 SSW 1010,6 19 0,0
20.10.2019 00:00:00 10,8 9,5 22 12 32 17 SW 1010,3 22 0,0
19.10.2019 23:00:00 10,8 9,6 22 12 37 20 SSW 1010,2 20 0,0
19.10.2019 22:00:00 10,8 9,5 18 10 34 18 SSW 1009,8 23 0,0
19.10.2019 21:00:00 10,8 9,3 23 12 35 19 SSW 1009,3 22 0,0
19.10.2019 20:00:00 10,8 9,4 27 14 45 24 SSW 1009,0 24 0,0
19.10.2019 19:00:00 10,9 9,4 26 14 40 21 SSW 1008,4 23 0,0
19.10.2019 18:00:00 10,7 9,5 21 12 34 19 SSW 1008,0 19 0,0
19.10.2019 17:00:00 10,8 9,3 25 14 40 22 SSW 1007,7 20 0,0
19.10.2019 16:00:00 10,9 9,2 27 14 44 24 SSW 1007,4 22 0,0
19.10.2019 15:00:00 11,0 9,1 28 15 43 23 SW 1006,7 24 0,0
19.10.2019 14:00:00 11,1 9,0 33 18 48 26 SW 1006,3 26 0,0
19.10.2019 13:00:00 11,2 8,9 34 18 50 27 SW 1005,9 29 0,0
19.10.2019 12:00:00 11,3 8,7 31 17 51 27 SW 1005,3 29 0,0
19.10.2019 11:00:00 11,2 8,8 35 19 52 28 SW 1005,1 32 0,0
19.10.2019 10:00:00 11,0 9,0 31 17 53 28 SW 1004,6 29 0,0
19.10.2019 09:00:00 10,9 8,5 32 18 55 30 SW 1004,1 29 0,0
19.10.2019 08:00:00 10,5 9,1 35 19 51 28 SW 1003,6 33 0,0
19.10.2019 07:00:00 10,9 9,2 39 21 50 27 SW 1002,8 47 0,0
19.10.2019 06:00:00 11,0 9,8 29 16 45 24 SW 1002,5 23 0,0
19.10.2019 05:00:00 11,3 10,6 31 17 45 24 SSW 1002,1 13 0,9
19.10.2019 04:00:00 11,3 11,0 30 16 40 21 S 1002,3 6 0,3
19.10.2019 03:00:00 10,9 10,8 30 16 36 19 SSE 1002,6 4,0 0,0
19.10.2019 02:00:00 11,0 10,8 24 13 29 15 S 1003,6 7 0,0
19.10.2019 01:00:00 10,9 10,7 22 12 31 17 S 1004,4 3,0 0,0
19.10.2019 00:00:00 10,9 10,7 21 12 33 18 S 1005,3 0,2 0,0
18.10.2019 23:00:00 11,0 10,9 24 13 35 19 S 1005,5 0,3 0,0
18.10.2019 22:00:00 11,2 11,0 30 16 35 19 S 1005,9 1,7 0,0
18.10.2019 21:00:00 11,1 11,0 29 16 38 20 SSE 1006,5 2,6 0,2
18.10.2019 20:00:00 10,8 10,7 26 14 31 17 SE 1006,9 2,3 0,2
18.10.2019 19:00:00 10,6 10,4 19 10 23 13 ESE 1007,7 3,7 0,0
18.10.2019 18:00:00 10,6 10,2 14 8 17 9 ESE 1008,5 6 0,0
18.10.2019 17:00:00 10,5 9,7 6 3 11 6 ESE 1008,8 27 0,0
18.10.2019 16:00:00 10,6 9,4 3 1 9 5 SSE 1009,2 29 0,0
18.10.2019 15:00:00 10,5 9,1 8 4 14 7 W 1009,5 42 0,0
18.10.2019 14:00:00 10,7 9,1 11 6 17 9 WSW 1009,8 44 0,0
18.10.2019 13:00:00 10,7 9,3 11 6 21 11 SW 1010,0 35 0,0
18.10.2019 12:00:00 10,7 9,2 17 9 25 13 WSW 1010,2 42 0,0
18.10.2019 11:00:00 10,7 9,7 20 11 29 16 WSW 1010,4 43 0,0
18.10.2019 10:00:00 10,8 10,6 16 9 24 13 SW 1010,1 4,5 0,0
18.10.2019 09:00:00 10,6 10,4 11 6 20 11 SW 1009,8 - 0,1
18.10.2019 08:00:00 10,3 10,3 15 8 21 12 SW 1009,6 1,2 0,2
18.10.2019 07:00:00 10,6 10,4 14 7 21 12 S 1009,4 0,3 0,0
18.10.2019 06:00:00 10,5 10,4 18 10 27 15 SSE 1009,7 0,2 0,0
18.10.2019 05:00:00 10,2 10,0 22 12 26 14 SE 1009,6 0,8 0,0
18.10.2019 04:00:00 10,0 9,8 21 11 24 13 SSE 1010,2 9 0,1
18.10.2019 03:00:00 9,7 9,4 19 10 22 12 SE 1010,3 1,9 0,3
18.10.2019 02:00:00 9,7 9,2 15 8 18 10 SE 1010,6 3,5 0,0
18.10.2019 01:00:00 9,7 8,9 12 7 14 8 SE 1010,8 17 0,0
18.10.2019 00:00:00 9,5 8,4 10 5 13 7 S 1011,0 17 0,0
17.10.2019 23:00:00 9,4 7,9 7 4 13 7 S 1011,2 32 0,0
17.10.2019 22:00:00 9,1 7,6 9 5 15 8 S 1011,1 47 0,0
17.10.2019 21:00:00 9,0 7,6 9 5 11 6 SSW 1010,9 50 0,0

tt = temperature
td = dewpoint
ff = wind speed
fx = gusts
dd = wind direction
ppp = reduced air pressure
vv = visibility
rr = precipitation

Next stations